Location: *
(52.0464°N, 11.8272°E)
Time: 17:37:53
(UTC+00:00)

Daily predictions for brighter satellites

Satellite Brightness Start Highest point End
(mag) Time Altitude Azimuth Time Altitude Azimuth Time Altitude Azimuth
NOAA 11 4.3 17:32:55 10° SSE 17:38:18 61° ENE 17:43:43 10° N
Envisat 3.9 17:35:13 10° S 17:40:12 55° W 17:45:14 10° NNW
Meteor 2-5 Rocket 4.5 17:38:13 10° N 17:43:34 36° ENE 17:48:58 10° SE
COSMOS 2428 3.9 17:38:37 10° NW 17:44:01 46° WSW 17:49:24 10° S
ARGOS 4.3 17:40:40 10° ESE 17:44:58 25° ENE 17:49:19 10° N
GP-B 3.1 17:40:39 10° N 17:45:05 64° E 17:49:29 10° S
SPOT 3 Rocket 4.4 17:41:01 10° ESE 17:45:31 31° ENE 17:50:02 10° N
YAOGAN 1 3.0 17:41:14 10° S 17:45:33 68° WSW 17:49:53 10° NNW
COBE Rocket 4.1 17:41:24 10° NNE 17:46:29 86° WNW 17:51:38 10° SSW
RESURS DK-1 3.8 17:43:34 10° NNW 17:46:54 22° NE 17:50:12 10° E
Cosmos 1892 Rocket 4.1 17:42:53 10° N 17:47:06 40° ENE 17:51:15 10° SE
Cosmos 676 Rocket 4.3 17:42:44 10° NNW 17:47:52 49° ENE 17:52:56 10° SE
IRS-1A Rocket 4.3 17:43:12 10° SSE 17:48:46 64° ENE 17:54:18 10° NNW
YAOGAN 6 3.6 17:46:15 10° S 17:49:51 52° W 17:53:31 10° NNW
Resurs 01 Rocket 3.4 17:49:23 10° E 17:51:59 15° NE 17:54:34 10° NNE
FREGAT/IRIS 3.2 17:53:23 10° SE 17:55:58 33° ENE 17:58:34 10° N
Cosmos 2227 Rocket 2.9 17:51:15 10° SSE 17:56:13 32° ESE 18:01:12 10° NE
BREEZE-M DEB (TANK) 3.3 17:55:35 10° W 17:59:33 83° S 18:07:35 10° E
Cosmos 2084 Rocket 4.2 17:57:09 10° S 18:01:09 33° SE 18:05:09 10° ENE
ADEOS Rocket 4.3 17:55:48 10° NNE 18:01:59 27° E 18:08:21 10° SE
Cosmos 2219 3.3 17:57:40 10° S 18:03:16 57° ESE 18:08:54 10° NE
CZ-4C R/B 3.9 17:58:19 10° WNW 18:03:37 31° N 18:09:46 10° ENE
Cosmos 1190 Rocket 4.1 17:58:23 10° NNW 18:03:43 88° WSW 18:08:59 10° SSE
CZ-2D R/B 3.4 17:59:58 10° S 18:03:45 76° WSW 18:07:35 10° NNW
Cosmos 614 Rocket 4.1 17:58:37 10° NNW 18:03:53 83° WSW 18:09:03 10° SSE
Cosmos 2297 Rocket 2.6 18:00:54 10° S 18:06:07 40° ESE 18:11:22 10° NE
COSMO-SKYMED 1 3.6 18:02:27 10° N 18:06:41 51° WNW 18:10:54 10° SW
SJ-6B 3.4 18:06:18 10° SE 18:10:08 40° ENE 18:13:55 10° N
Nadezhda 1 Rocket 4.1 18:06:12 10° S 18:12:16 84° W 18:18:27 10° N
MONITOR-E 3.8 18:09:45 10° SSE 18:12:32 85° E 18:15:23 10° NNW
Cosmos 1766 4.5 18:09:29 10° SE 18:12:33 22° E 18:15:36 10° NE
Cosmos 1295 Rocket 4.5 18:06:39 10° N 18:12:53 90° WSW 18:19:00 10° S
Okean 1-7 Rocket 3.5 18:08:43 10° N 18:13:11 70° ENE 18:17:39 10° SSE
H-2A R/B 2.6 18:09:30 10° SE 18:14:05 38° ENE 18:18:48 10° N
CZ-4 R/B 3.8 18:12:04 10° SSW 18:15:24 26° W 18:18:49 10° NW
In-Cosmos 22 4.1 18:12:17 10° NNW 18:17:42 82° ENE 18:23:13 10° SSE
SL-8 R/B 4.0 18:13:16 10° W 18:17:58 56° S 18:21:34 17° ESE
Ariane Rocket 3.5 18:17:25 10° S 18:22:27 65° WSW 18:27:32 10° NNW
Cosmos 1943 4.5 18:17:47 10° NNW 18:22:32 26° NE 18:26:02 15° E
HJ-1C 3.8 18:20:08 10° S 18:23:31 67° W 18:26:54 10° NNW
Cosmos 405 Rocket 2.6 18:21:28 10° S 18:25:06 56° E 18:28:48 10° NNE
USA 234 3.4 18:19:30 10° ENE 18:26:04 76° NNW 18:32:37 10° WSW
ASTEX 1 3.3 18:22:36 10° N 18:27:31 71° E 18:32:24 10° S
Cosmos 389 Rocket 3.2 18:24:35 10° NNW 18:27:58 53° W 18:31:19 10° S
Cosmos 1455 Rocket 3.3 18:24:19 10° SSE 18:28:34 48° E 18:32:53 10° NNE
Cosmos 1544 Rocket 4.0 18:24:26 10° SSE 18:28:37 40° E 18:32:48 10° NNE
Cosmos 1674 2.9 18:25:01 10° N 18:28:37 45° ENE 18:31:14 17° SE
Lacrosse 5 rocket 1.5 18:26:43 10° SSW 18:30:10 42° SE 18:32:25 20° ENE
Cosmos 407 Rocket 4.4 18:25:45 10° NNW 18:30:42 50° WSW 18:35:38 10° S
MOS 1 4.4 18:27:50 10° SSE 18:33:33 80° WSW 18:39:16 10° NNW
Cosmos 2237 Rocket 3.2 18:28:58 10° NW 18:34:25 47° WSW 18:39:50 10° S
USA 186 1.8 18:33:16 10° SSE 18:36:42 82° ENE 18:40:06 10° N
Cosmos 1437 Rocket 2.6 18:32:57 10° N 18:36:45 66° ENE 18:39:44 15° SSE
Cosmos 2056 Rocket 3.5 18:33:53 10° SSW 18:39:18 78° ESE 18:44:43 10° NNE
ISS -3.4 18:36:19 10° SW 18:39:29 44° SSE 18:40:32 32° ESE
Cosmos 1939 Rocket 4.4 18:36:17 10° SSW 18:39:52 36° W 18:43:30 10° NNW
ERBS 3.4 18:37:57 10° WNW 18:41:09 39° SW 18:43:05 20° SSE
Cosmos 1420 Rocket 4.4 18:36:17 10° S 18:41:14 41° ESE 18:46:13 10° NE
Cosmos 1140 Rocket 4.1 18:38:54 10° NNW 18:43:59 56° WSW 18:49:00 10° S
SAR-Lupe-2 3.4 18:40:51 10° NNE 18:44:27 81° ESE 18:48:01 10° SSW
Cosmos 1626 Rocket 3.7 18:40:13 10° N 18:44:28 52° ENE 18:47:01 22° SE
Meteor 1-15 Rocket 4.4 18:40:18 10° SSW 18:46:08 86° WNW 18:52:06 10° NNE
Meteor 1-24 Rocket 3.8 18:42:48 10° N 18:48:38 73° ENE 18:54:23 11° SSE
Cosmos 1624 Rocket 4.0 18:45:09 10° SSW 18:50:21 85° WNW 18:55:36 10° NNE
Cosmos 1741 Rocket 4.1 18:47:51 10° NNW 18:53:11 64° ENE 18:56:13 26° SE
Cosmos 1954 Rocket 4.5 18:49:29 10° NNW 18:54:39 61° WSW 18:59:44 10° S
Cosmos 1805 3.2 18:54:41 10° S 18:58:32 62° E 19:02:23 10° NNE
Spot 2 Rocket 4.2 18:57:28 29° E 18:59:04 36° ENE 19:03:39 10° N
CZ-2C R/B 4.1 18:59:08 10° NE 19:02:08 19° ENE 19:02:08 19° ENE
Cosmos 1758 Rocket 4.4 18:59:27 10° N 19:03:20 31° ENE 19:03:35 31° ENE
Cosmos 1603 4.0 18:58:27 10° NNW 19:03:59 50° NE 19:06:20 32° ESE
SL-08 R/B 4.5 18:59:28 10° N 19:06:00 79° E 19:11:30 15° SSE
Cosmos 1602 Rocket 3.4 19:02:36 10° N 19:06:58 70° ENE 19:08:44 34° SSE
KORONAS-FOTON 3.8 19:03:18 10° NNW 19:07:07 78° W 19:09:09 26° S
Cosmos 1626 2.8 19:04:19 10° N 19:07:34 36° ENE 19:07:34 36° ENE
Cosmos 2181 Rocket 4.1 19:02:02 10° SSW 19:08:19 80° W 19:14:46 10° N
SL-16 R/B 2.6 19:02:42 10° NW 19:08:19 62° WSW 19:12:44 17° S
GEOS 3 Rocket 4.4 19:05:54 16° SSE 19:09:45 45° SW 19:14:40 10° NW
Resurs 1-3 3.5 19:08:41 31° SSE 19:10:46 80° ENE 19:15:10 10° NNW
Lacrosse 5 3.8 19:07:35 10° S 19:08:27 14° S 19:08:27 14° S
Nadezhda 3 Rocket 4.3 19:11:03 29° SE 19:13:32 43° E 19:19:21 10° NNE
Cosmos 2366 rocket 4.3 19:10:20 10° NNW 19:16:41 70° W 19:22:58 10° S
Cosmos 2218 Rocket 4.4 19:12:39 10° NNW 19:18:58 63° W 19:25:10 10° S
Cosmos 1733 3.0 19:23:18 69° E 19:23:18 69° E 19:27:02 10° NNE
Cosmos 1821 Rocket 4.0 19:17:49 10° N 19:23:56 61° ENE 19:26:17 37° SE
SPOT 3 Rocket 4.4 19:19:46 10° S 19:24:44 49° W 19:29:46 10° NNW
ARGOS 3.4 19:20:36 17° S 19:24:49 68° WSW 19:30:14 10° NNW
RESURS DK-1 2.6 19:21:13 10° NW 19:25:20 66° WSW 19:26:21 47° S
Cosmos 2082 3.6 19:20:15 10° SSW 19:26:00 88° ESE 19:31:46 10° NNE
Resurs 01 Rocket 1.5 19:26:29 45° SSE 19:27:50 90° SE 19:32:20 10° NNW
DMSP B5D2-2 4.3 19:23:08 10° NNE 19:28:13 44° E 19:28:18 44° E
Cosmos 2239 Rocket 4.5 19:24:19 10° N 19:30:33 62° ENE 19:32:40 41° SE
Cosmos 1452 Rocket 3.4 19:28:05 10° SSW 19:33:20 84° ESE 19:38:38 10° NNE
CZ-2C R/B 3.2 19:30:52 32° SSE 19:33:30 84° WSW 19:39:13 10° NNW
Meteor 1-22 Rocket 4.4 19:27:51 10° SSW 19:33:59 84° WNW 19:40:07 10° NNE
MetOp-A 4.2 19:34:27 32° S 19:37:00 78° WSW 19:42:23 10° NNW
Cosmos 2227 Rocket 2.9 19:34:29 10° SW 19:40:02 55° NW 19:45:39 10° NNE
Cosmos 2084 Rocket 4.2 19:36:08 10° WSW 19:40:31 54° NW 19:43:56 16° NE
SL-14 R/B 3.2 19:36:40 10° NNW 19:40:39 78° W 19:40:46 77° WSW
ADEOS Rocket 3.6 19:40:44 10° NNE 19:48:09 83° WNW 19:55:57 10° SSW
Meteor 2-12 Rocket 4.3 19:42:38 10° N 19:48:47 87° E 19:50:51 45° SSE
Cosmos 2297 Rocket 3.2 19:44:41 10° WSW 19:50:08 46° NW 19:55:36 10° NNE
Landsat 7 4.4 19:53:05 44° NE 19:53:05 44° NE 19:57:06 10° N
H-2A R/B 3.3 19:49:53 15° SSW 19:53:33 37° W 19:58:17 10° NNW
CZ-4C R/B 3.6 19:47:41 10° NW 19:53:49 41° NNE 19:56:55 28° ENE
Cosmos 2263 Rocket 4.2 20:01:44 15° NE 20:01:44 15° NE 20:02:48 10° NE
Cosmos 1943 3.0 20:01:35 10° NNW 20:07:20 87° WSW 20:07:51 75° SSE
USA 234 3.7 20:05:27 29° ENE 20:08:48 58° N 20:15:13 10° WNW
Lacrosse 5 rocket 2.5 20:05:36 10° W 20:08:06 37° WNW 20:08:06 37° WNW
BREEZE M DEB (TANK) 3.8 20:10:52 10° W 20:12:29 32° WSW 20:12:29 32° WSW
SPOT 5 3.5 20:14:48 47° NNE 20:14:48 47° NNE 20:18:56 10° N
Cosmos 1953 Rocket 4.1 20:11:30 10° NNW 20:15:05 56° NNW 20:15:05 56° NNW
ISS -1.0 20:12:46 10° W 20:13:26 15° W 20:13:26 15° W
Cosmos 1934 Rocket 3.9 20:13:15 10° N 20:19:26 86° W 20:20:15 69° S
ERS-1 Rocket 3.2 20:20:57 62° NNE 20:20:57 62° NNE 20:25:17 10° NNW
Terra 3.0 20:25:43 35° NNE 20:25:43 35° NNE 20:28:51 10° N
Cosmos 1470 4.4 20:26:30 31° NNW 20:26:30 31° NNW 20:28:52 10° N
USA 245 4.5 20:36:02 63° WSW 20:36:19 64° WSW 20:41:39 10° NNW
Spot 2 Rocket 4.4 20:37:40 39° WSW 20:38:01 40° W 20:42:46 10° NNW
CZ-2C R/B 2.9 20:38:33 10° NNE 20:43:38 71° NNW 20:43:38 71° NNW
Cosmos 1486 Rocket 4.5 20:40:24 10° NNW 20:44:38 58° NW 20:44:38 58° NW
Cosmos 1241 Rocket 4.5 20:40:26 10° NW 20:46:25 73° W 20:46:25 73° W
SPOT 1/Viking Rocket 4.2 20:54:02 52° WNW 20:54:02 52° WNW 20:58:15 10° NNW
Cosmos 968 Rocket 4.4 20:56:26 10° NNW 21:00:07 46° NNW 21:00:07 46° NNW
Cosmos 2285 Rocket 4.1 20:57:24 10° NNW 21:03:17 73° NW 21:03:17 73° NW
Resurs 01 Rocket 4.3 21:04:04 12° W 21:05:00 13° W 21:07:04 10° WNW
Cosmos 1605 Rocket 4.3 21:00:38 10° NNW 21:06:48 61° W 21:06:48 61° W
Cosmos 2082 Rocket 4.0 21:17:22 10° NNW 21:21:50 23° NE 21:21:50 23° NE
Cosmos 2100 Rocket 4.4 21:19:56 10° N 21:24:56 58° N 21:24:56 58° N
Cosmos 2263 Rocket 3.5 21:43:23 36° N 21:43:23 36° N 21:47:01 10° NNE
CZ-4C R/B 3.0 21:36:13 10° NW 21:42:04 68° NW 21:42:04 68° NW
USA 234 3.6 21:52:48 59° NW 21:52:48 59° NW 21:58:05 10° WNW
Cosmos 1833 Rocket 4.2 21:48:01 10° NNW 21:51:35 31° N 21:51:35 31° N
COSMOS 2406 4.5 21:51:19 10° NNW 21:54:52 38° NNW 21:54:52 38° NNW
Terra 4.2 22:04:36 19° NW 22:04:36 19° NW 22:06:20 10° NW
Mayak 1.9 22:28:32 10° N 22:28:47 12° N 22:28:47 12° N
Cosmos 1844 Rocket 4.5 22:52:56 27° NNE 22:52:56 27° NNE 22:55:32 10° NNE
SJ 16-02 4.3 22:50:22 10° N 22:51:03 14° N 22:51:03 14° N
Cosmos 2082 Rocket 4.0 23:01:08 10° NNW 23:03:40 27° NNW 23:03:40 27° NNW
SL-16 R/B 3.9 23:28:50 32° NE 23:28:50 32° NE 23:34:02 10° N
ATLAS CENTAUR R/B 4.3 23:40:58 17° N 23:40:58 17° N 23:43:17 10° NE
Cosmos 2278 Rocket 3.7 23:54:10 33° NNE 23:54:10 33° NNE 23:57:12 10° NNE
